Location: Clarion
(42.7316°N, 93.7330°W)
Time: 02:10:18
(UTC+00:00)

USA 245 - Pass Details

Date: 22 April 2026
Orbit: 264 x 994 km, 97.9° (Epoch: 15 October)

Event Time Altitude Azimuth Distance (km) Brightness Sun altitude
Exits shadow 03:23:54 62° 122° (ESE) 810 3.8 -22.8°
Maximum altitude 03:24:32 70° 74° (ENE) 776 3.8 -22.8°
Drops below altitude 10° 03:29:54 10° 351° (N) 2,421 7.3 -23.5°
Sets 03:32:27 0° 350° (N) 3,430 8.2 -23.9°
